Location: Newark
(59.4564°N, 26.6917°E)
Time: 08:35:02
(UTC+00:00)

SR - Pass Details

Date: 28 November 2019
Orbit: 573 x 882 km, 66.7° (Epoch: 11 December)

Event Time Altitude Azimuth Distance (km) Brightness Sun altitude
Rises 09:50:45 0° 167° (SSE) 3,274 ? 9.2°
Reaches altitude 10° 09:53:47 10° 149° (SSE) 2,403 ? 9.2°
Maximum altitude 09:57:29 18° 108° (ESE) 1,933 ? 9.3°
Drops below altitude 10° 10:01:20 10° 66° (ENE) 2,513 ? 9.3°
Sets 10:04:35 0° 49° (NE) 3,480 ? 9.3°
